Tracking 30995 objects as of 7-Jul-2025
HD Live streaming from Space Station
objects crossing your sky now

YAOGAN-31 K

Track YAOGAN-31 K now!
10-day predictions


NORAD ID: 47854
Int'l Code: 2021-020A
Perigee: 988.7 km
Apogee: 1,204.0 km
Inclination: 63.4 °
Period: 107.0 minutes
Semi major axis: 7467 km
RCS: Unknown
Launch date: March 13, 2021
Source: People's Republic of China (PRC)
Launch site: Jiuquan Satellite Launch Center, China (JSC)
Your satellite tracking list
ONEWEB-0184
Track 1 satellite(s)




NASA's NSSDC Master Catalog

Two Line Element Set (TLE):
1 47854U 21020A   25187.84244400 -.00000051  00000-0  61378-4 0  9998
2 47854  63.4071  65.3083 0144147 359.2875   0.7924 13.45410550212113
Source of the keplerian elements: AFSPC